RH
41 38 28 48 54 52 52 66 59 53 50 38 30 25 20 19 19 16 17 19 20 16 15 14 15 14 13 12 12 13 13 14 19 20 21 23 24 24 26 28 29 30 31
36 32 34 38 56 50 53 63 67 58 54 46 35 29 24 22 22 19 20 23 19 16 15 16 16 14 12 13 14 14 16 20 21 23 24 25 25 28 28 31 34 36 36
48 54 37 34 48 51 54 64 65 66 62 56 42 33 26 25 25 22 26 22 18 17 18 18 15 14 13 15 15 18 22 23 24 26 27 30 32 35 36 35 36 37 37
52 61 46 38 40 51 53 61 70 74 70 64 48 36 28 29 25 28 26 22 19 20 20 16 14 14 16 16 21 23 24 25 27 30 32 35 37 38 40 42 44 46 49
50 70 47 38 42 49 54 63 64 77 74 69 51 38 32 30 29 30 26 22 23 21 16 14 15 16 18 22 25 26 27 29 32 34 36 39 41 42 43 40 40 45 53
41 67 29 40 37 48 59 66 66 69 74 65 50 37 34 32 33 30 26 27 22 17 14 15 17 21 24 26 27 28 31 34 36 38 40 43 45 48 49 49 53 54 57
45 48 27 22 38 47 68 66 72 69 68 72 64 65 46 38 33 31 29 23 16 16 16 18 24 26 27 28 30 33 36 37 38 40 43 47 50 53 57 60 61 58 52
52 49 39 31 45 56 66 69 71 72 73 59 63 68 55 40 34 31 24 17 16 17 23 27 28 27 29 32 34 36 36 38 41 44 48 52 56 60 65 68 68 56 49
51 62 87 64 61 61 68 75 75 67 58 44 43 43 40 38 34 23 17 16 19 27 29 27 27 30 33 34 33 33 36 40 43 48 52 56 62 66 69 70 73 74 55
51 65 65 82 83 73 72 71 63 53 49 46 45 44 42 34 24 17 16 25 29 27 25 29 32 32 31 30 30 34 39 42 46 50 53 60 64 61 62 64 70 75 75
48 74 83 84 80 68 64 56 53 51 49 47 46 42 34 22 17 20 29 29 24 27 30 30 28 28 27 28 32 35 36 39 43 48 51 49 49 49 55 60 58 54 65
53 74 72 67 67 68 64 60 58 54 52 48 41 31 20 16 27 30 24 25 30 28 26 26 24 24 26 28 28 29 31 33 36 40 39 38 42 38 33 29 23 15 13
59 74 71 68 72 80 69 67 60 54 48 39 26 17 24 29 23 24 29 29 25 25 24 23 22 23 24 23 25 26 29 33 35 34 30 26 20 15 11 10 11 12 14
68 71 73 85 86 77 76 61 54 47 33 20 24 28 23 23 28 28 26 24 23 22 22 22 21 21 22 25 28 30 33 33 30 27 22 18 14 11 10 10 9 10 12
69 73 77 88 86 68 58 51 36 24 28 30 24 24 28 28 25 23 22 22 20 21 21 20 21 24 27 30 33 34 34 32 31 27 21 13 10 10 10 10 14 19 22
59 63 72 70 59 46 30 28 30 28 25 26 29 28 25 22 20 20 20 20 20 21 20 23 27 29 32 35 38 38 37 34 28 20 15 10 9 9 12 18 25 30 33
54 57 53 42 36 35 30 28 29 30 29 28 23 21 19 18 18 18 20 20 21 23 26 29 32 36 39 41 41 39 33 24 18 13 10 10 10 12 20 25 26 33 43
39 37 34 32 32 32 32 31 30 27 23 20 18 18 18 19 19 20 20 22 25 29 32 35 40 44 43 42 38 32 25 18 13 10 11 12 12 20 25 26 30 38 51
34 36 37 36 35 33 31 28 25 22 19 18 18 19 20 21 21 22 25 28 32 35 40 45 47 46 42 38 34 26 18 13 9 11 13 14 20 26 29 39 49 53 57
41 41 39 37 34 31 29 25 22 20 19 20 21 23 23 23 24 27 31 35 39 46 50 51 47 43 39 35 27 20 12 9 9 14 15 20 26 36 53 60 61 63 75
42 41 40 37 34 32 29 26 24 22 23 24 26 27 26 27 30 34 38 44 52 55 51 47 44 40 33 26 17 10 10 12 14 16 15 22 38 54 58 65 76 83 84
44 44 43 41 39 36 32 29 28 27 27 28 29 30 32 34 38 43 52 57 54 48 47 46 44 35 25 14 11 12 15 19 19 16 20 36 54 54 64 73 75 79 81
49 48 46 44 42 39 35 33 32 31 31 33 36 37 38 42 49 57 58 54 53 53 52 49 39 27 15 12 14 16 21 22 17 20 33 57 57 64 70 74 74 76 80
50 49 48 47 45 41 39 37 36 37 39 41 40 41 48 53 60 58 57 55 56 56 51 41 27 16 13 15 17 19 23 20 19 28 50 55 65 74 78 79 81 83 83
53 52 52 51 49 45 44 42 42 44 45 45 46 50 55 62 61 51 48 55 56 52 40 25 18 15 16 18 21 25 22 20 31 50 56 59 71 74 76 79 83 85 83
55 56 56 54 53 51 49 48 49 49 48 48 52 59 67 65 55 50 51 55 54 43 29 20 17 16 19 22 26 26 21 37 56 55 54 70 74 76 75 80 85 88 88
Wind_Speed
31 33 35 33 34 38 31 32 33 30 25 22 20 19 18 15 14 14 14 15 16 17 18 18 19 19 18 18 18 20 21 22 22 23 25 23 23 23 22 25 25 26 27
35 34 33 35 35 38 33 33 35 31 26 23 22 21 18 15 14 15 15 16 17 18 19 20 20 19 18 19 20 22 22 21 24 24 25 27 27 25 24 24 27 27 29
31 31 36 33 34 45 34 33 35 32 28 24 22 20 18 16 15 16 16 17 17 18 20 22 20 19 19 20 21 22 23 24 25 26 26 26 26 28 28 27 28 28 30
28 31 34 33 34 45 40 35 34 32 27 23 22 20 17 16 16 17 17 18 19 19 21 21 19 19 21 21 22 23 25 27 27 27 28 28 28 28 28 28 32 35 34
30 30 34 34 32 39 44 39 34 29 27 24 22 18 16 17 18 18 18 18 21 20 20 19 20 21 22 22 23 25 26 27 28 28 28 28 29 31 33 35 31 31 32
36 31 30 32 29 33 40 41 32 31 27 24 18 16 18 19 19 18 19 20 22 19 19 20 21 22 22 23 25 26 27 27 28 29 30 31 32 33 36 38 38 40 37
27 28 28 33 29 33 36 37 32 30 27 28 21 21 23 21 21 20 20 21 20 19 20 21 21 22 24 25 26 26 27 28 29 30 31 32 33 35 36 39 41 44 42
24 25 25 27 27 32 33 34 33 32 27 22 23 27 26 22 22 20 21 20 19 20 21 21 22 24 24 26 26 27 27 28 29 30 32 33 34 36 37 39 42 46 46
22 23 25 27 27 30 29 30 29 26 26 25 21 20 20 19 20 20 19 19 20 20 20 22 23 24 25 25 26 27 28 29 30 31 32 34 35 37 38 39 42 45 50
21 23 27 27 23 26 27 27 26 24 22 20 19 19 18 21 19 19 19 19 20 21 22 23 23 24 24 25 27 27 28 30 31 32 33 34 36 38 40 42 43 45 47
17 19 22 22 23 25 26 24 23 21 19 18 18 18 20 19 18 18 18 20 20 21 22 22 23 24 25 26 27 28 29 31 32 33 35 35 37 39 41 43 45 47 48
18 22 20 22 24 24 24 22 21 20 18 18 19 18 18 17 17 18 19 20 21 21 21 22 23 24 25 26 28 30 31 32 32 33 35 37 39 42 44 47 48 49 50
18 21 20 20 23 23 22 22 18 18 18 18 18 16 15 16 17 18 19 20 20 20 21 22 23 25 26 28 30 31 32 33 35 37 39 41 43 45 46 46 46 46 46
18 21 20 19 23 22 20 18 20 19 18 17 14 14 16 17 18 19 19 19 19 20 21 22 24 26 28 29 31 33 34 36 38 40 42 45 46 48 48 49 47 46 45
17 18 19 19 19 17 19 19 18 17 14 12 14 16 17 17 17 17 17 18 19 20 21 23 25 27 29 31 33 36 36 38 40 42 45 46 47 46 45 45 44 45 46
21 22 20 16 20 18 16 14 15 13 13 14 15 17 16 15 16 16 17 18 19 21 23 25 27 29 32 33 35 38 39 41 44 46 47 47 47 44 42 42 43 44 44
19 18 19 19 17 13 12 13 11 12 14 14 14 14 14 14 15 16 17 18 20 22 24 27 29 31 33 35 37 39 42 45 46 48 48 47 44 42 42 42 44 43 41
17 17 14 13 11 10 8 9 12 13 12 12 12 12 13 14 15 16 17 20 22 24 26 28 31 32 34 37 39 42 44 46 47 47 46 44 42 41 43 45 46 45 45
13 9 5 3 4 7 9 11 11 10 10 11 11 12 13 14 15 17 19 21 23 26 28 30 31 34 36 39 43 45 46 46 46 45 43 41 41 42 45 45 45 45 43
6 3 3 5 8 9 9 9 9 9 10 11 11 12 13 14 16 18 20 22 24 27 29 31 34 36 38 41 44 45 45 45 45 43 40 39 40 41 41 42 42 42 40
6 6 7 9 8 8 8 9 9 10 10 11 11 13 14 16 18 19 22 24 26 29 32 35 36 39 42 43 43 43 43 43 42 40 39 39 40 40 40 39 38 38 38
11 10 10 9 9 8 9 9 9 10 11 12 13 14 15 17 18 20 22 26 29 32 34 36 38 40 41 41 42 41 40 40 40 39 39 39 40 39 38 36 35 34 34
12 12 12 11 10 9 10 10 11 11 12 13 13 14 16 17 19 22 26 30 33 34 36 37 39 39 39 39 39 39 37 36 36 37 38 39 38 36 34 33 32 32 31
14 13 12 12 11 11 11 12 12 12 13 13 15 15 16 18 22 26 30 33 34 35 37 38 39 39 38 38 38 37 36 35 35 36 37 36 34 32 31 29 29 28 26
14 14 13 13 13 12 13 13 14 14 14 14 14 16 18 22 26 30 32 33 34 36 37 37 38 38 38 37 37 37 36 34 36 37 34 31 29 28 27 26 26 24 22
15 15 15 14 14 14 14 15 15 15 14 15 16 18 21 25 29 30 32 33 33 34 35 37 38 37 37 36 35 35 34 34 35 32 30 27 26 25 25 25 23 21 19
Wind_Direction
239 226 229 227 227 229 226 220 220 224 229 233 235 241 246 252 262 270 277 285 291 295 298 303 307 308 308 306 306 309 312 313 314 315 315 316 316 317 317 314 311 311 310
236 237 220 225 224 226 226 225 219 223 226 230 235 242 248 254 263 270 278 287 292 295 301 303 304 304 302 302 305 308 309 310 311 312 314 316 316 313 313 314 314 312 309
227 234 219 224 225 221 226 225 223 222 223 230 238 245 248 256 265 271 280 286 291 295 300 300 299 297 298 301 304 305 307 310 310 311 313 315 314 316 314 313 309 308 305
229 233 225 221 224 217 225 225 225 222 224 231 238 242 250 261 266 273 280 286 292 298 298 294 293 293 298 300 302 304 307 309 310 312 312 313 312 310 308 310 312 313 313
209 227 226 218 222 221 224 227 221 220 228 231 237 243 254 260 266 273 280 290 293 297 291 289 291 294 298 300 302 305 307 308 309 310 311 310 308 309 309 307 305 302 307
209 227 231 219 219 218 222 226 222 215 222 229 234 246 253 260 267 277 283 291 292 288 285 288 292 295 297 300 304 305 306 306 307 308 309 309 309 310 311 309 310 310 313
220 226 231 218 221 217 219 219 217 217 225 233 240 266 274 271 270 275 284 287 282 282 286 291 293 295 299 302 302 303 305 305 306 307 308 308 309 309 308 308 309 310 310
222 221 228 215 223 212 214 215 217 222 221 236 236 235 240 251 267 278 282 277 280 286 289 293 296 299 301 301 303 305 304 305 306 306 307 307 307 307 308 308 309 308 307
225 213 208 207 217 208 208 213 214 212 210 218 229 237 248 260 270 275 273 279 285 287 292 295 298 300 301 303 303 302 304 305 305 305 306 306 306 306 307 307 306 306 308
213 206 220 203 195 197 201 204 201 204 213 223 233 245 258 266 266 270 277 283 286 292 295 297 299 300 301 301 301 304 305 305 305 305 305 306 307 307 307 305 305 306 307
221 216 201 191 190 193 194 193 199 207 217 228 241 251 258 262 266 275 279 282 290 293 295 296 298 299 300 301 303 304 304 305 305 306 306 308 307 305 305 304 304 304 304
218 206 192 188 189 190 188 195 202 209 222 234 242 251 253 263 269 273 281 289 292 293 294 295 298 300 303 304 305 306 306 308 307 307 308 307 305 305 306 306 305 304 304
206 199 194 188 190 190 195 199 206 219 227 237 240 247 258 265 273 281 287 289 289 292 294 298 301 304 306 307 307 308 309 310 312 311 309 308 308 307 305 304 304 304 303
195 190 184 190 198 193 198 206 213 220 227 231 240 253 262 270 277 282 282 286 289 293 298 303 307 308 308 310 310 310 313 313 312 312 310 309 309 309 309 309 309 308 306
176 176 183 199 203 197 206 211 214 216 222 235 249 258 267 274 275 277 281 286 294 300 304 308 309 310 310 312 312 313 314 313 313 311 310 310 310 310 310 309 308 307 306
163 171 153 202 202 195 202 205 213 220 234 247 258 265 268 270 274 278 286 295 300 306 309 310 311 313 313 313 313 314 315 314 313 313 312 312 311 310 309 307 308 308 308
166 181 182 185 188 186 199 213 228 244 254 260 262 264 268 272 278 287 294 300 306 308 310 312 313 312 313 315 316 316 315 314 314 314 313 313 312 310 309 310 310 309 307
159 162 165 176 191 207 229 246 253 257 257 258 261 266 272 279 287 294 302 305 307 310 312 312 314 316 317 317 316 314 314 314 313 313 314 313 312 312 312 310 310 309 309
153 156 165 202 249 259 259 257 253 252 256 260 266 273 280 288 296 301 304 308 310 310 312 315 317 319 318 317 315 314 313 313 314 315 315 314 314 314 313 311 309 308 308
165 194 263 284 278 269 261 254 251 255 261 266 274 283 289 295 299 304 307 308 310 312 316 319 319 318 317 315 313 313 314 315 315 314 314 313 312 313 311 310 310 310 310
233 261 281 286 279 268 256 252 255 261 270 278 284 288 293 299 303 306 307 310 315 318 319 319 318 316 315 314 315 316 316 315 315 315 315 316 316 315 315 314 313 310 306
251 266 283 286 283 270 260 260 266 273 277 283 288 292 297 302 303 308 314 317 319 319 318 316 315 316 316 316 317 317 317 318 317 317 318 318 318 319 319 317 316 311 307
257 275 288 291 289 278 271 269 272 277 282 284 290 297 298 302 310 316 319 320 318 316 316 315 315 316 317 318 318 319 319 318 316 317 320 322 323 323 323 323 321 317 314
262 274 282 289 285 277 273 272 275 280 285 289 289 293 302 310 316 318 319 318 317 316 315 315 316 318 319 320 320 320 321 319 318 320 325 326 327 327 328 329 327 325 324
263 272 283 285 283 279 278 278 280 282 282 285 295 303 308 314 318 320 320 318 315 315 316 318 320 321 323 323 322 323 323 323 324 326 326 326 328 331 333 337 340 338 335
265 273 279 281 281 279 279 278 278 281 287 292 294 301 311 318 320 318 316 316 317 318 319 320 321 323 324 324 323 323 323 324 324 326 326 328 331 334 338 345 350 349 352